User: anonymous   Login
Location: Unspecified
(0.0000°N, 0.0000°E)
Time: 09:07:28
(UTC+00:00)
Language:

TDF 2 - Orbit

View from above orbital plane
View from above orbital plane
View from above satellite
View from above satellite

Ground track
Ground track

The orbit data is extracted from the following two-line orbital elements,

1 20705U 90063A   18018.34840983 -.00000211  00000-0  00000+0 0  9993
2 20705  14.4741  23.4739 0051767 249.2734 292.9682  0.98612813102966
Epoch (UTC): 18 January 2018 08:21:42
Eccentricity: 0.0051767
inclination: 14.4741°
perigee height: 36037 km
apogee height: 36478 km
right ascension of ascending node: 23.4739°
argument of perigee: 249.2734°
revolutions per day: 0.98612813
mean anomaly at epoch: 292.9682°
orbit number at epoch: 10296

The dashed part of the orbit path shows where the satellite is in the earth's shadow,  

DLR